Wind_Speed
27 26 27 26 26 27 27 28 28 29 30 31 31 32 33 33 34 35 35 35 36 37 37 37 37 37 37 37 38 39 40 41 41 41 42 42 43 44 43 44 44 45 45 46 47 48 49 50 51 52 52 52 51 51 52 48 44 45 47 48 50 52 51
31 30 29 29 29 29 29 30 31 32 33 34 35 35 35 36 36 37 37 37 38 38 39 39 39 39 39 40 41 42 43 43 43 44 44 45 46 45 44 45 45 44 45 47 48 49 50 51 52 53 53 53 52 52 52 48 44 46 48 50 52 53 52
34 33 33 32 32 31 31 32 32 34 35 36 37 37 38 37 37 38 39 39 40 40 41 41 41 42 42 43 44 45 46 46 46 46 46 47 46 44 45 47 45 44 46 48 49 50 51 52 53 54 54 54 53 54 53 48 45 47 50 52 55 54 52
37 36 36 35 35 34 34 34 34 35 36 37 38 39 39 40 40 40 41 41 42 42 42 43 44 45 45 46 47 47 48 48 48 48 48 48 47 46 49 48 44 45 49 50 50 51 52 54 54 55 55 54 55 55 52 48 46 47 51 55 56 55 53
39 39 39 39 39 38 38 37 37 37 38 39 40 41 41 42 42 43 44 44 44 43 44 45 46 47 48 48 49 49 49 50 49 49 50 50 48 48 50 49 47 49 52 52 52 53 55 55 56 56 55 55 56 54 51 49 47 48 52 56 58 56 54
42 42 42 43 43 42 42 41 41 42 42 42 43 43 43 43 44 45 46 46 45 45 45 46 47 49 49 49 49 49 49 50 51 52 52 50 49 50 53 53 51 53 55 54 54 56 56 56 57 58 57 57 55 51 49 49 48 48 53 57 58 57 56
45 45 45 45 46 46 46 45 45 45 45 45 45 45 44 45 46 46 47 47 47 47 47 48 49 49 49 49 49 49 50 51 52 53 53 51 51 53 55 55 54 56 57 56 56 57 57 57 59 60 58 55 50 48 48 49 48 50 54 59 59 58 59
47 47 47 48 48 49 48 48 48 48 48 47 46 46 46 46 47 47 47 48 48 49 49 49 49 49 49 49 48 49 50 51 52 53 53 53 54 55 56 56 56 57 58 58 57 56 55 56 59 59 55 51 47 46 48 48 48 50 55 59 59 60 61
49 49 49 50 50 50 50 50 51 50 49 48 47 47 47 48 48 48 48 48 48 49 49 49 50 49 49 49 49 49 50 52 53 55 55 56 56 56 57 57 57 59 60 58 55 52 52 55 59 58 53 49 48 48 48 49 49 51 55 58 59 61 62
50 50 50 51 52 51 51 52 52 51 50 49 48 48 48 49 49 49 48 48 48 48 48 49 50 50 50 50 50 51 52 54 55 57 58 57 57 58 59 59 60 61 59 55 52 50 49 55 61 60 54 51 50 49 50 51 52 54 57 60 62 63 63
50 50 51 52 53 52 53 53 53 52 52 51 50 50 50 50 50 50 49 49 48 48 49 49 50 51 52 52 52 53 55 56 58 59 58 57 57 57 57 56 58 58 56 54 53 50 51 58 62 59 55 53 52 51 51 53 55 57 60 63 65 66 66
51 51 52 53 54 53 53 54 54 55 54 54 53 52 52 52 52 51 51 50 50 49 50 50 51 52 53 54 55 55 56 60 62 60 56 55 55 52 51 52 54 55 56 57 56 52 55 62 63 59 57 54 51 51 53 54 57 60 63 65 67 67 68
51 52 53 54 55 55 55 56 56 56 57 56 54 54 54 54 54 53 53 52 52 52 52 52 52 53 54 54 54 55 58 61 58 52 49 51 51 48 49 51 52 55 57 58 57 57 61 65 62 59 58 55 52 53 54 55 59 64 66 67 68 69 71
53 53 54 55 57 57 58 58 58 58 58 57 56 56 56 56 56 55 55 55 54 54 54 54 54 55 55 54 54 55 56 53 48 46 50 51 51 50 52 55 55 56 58 57 59 63 66 65 61 57 57 56 56 57 57 58 63 68 69 69 69 71 73
55 55 55 57 59 60 61 62 61 60 60 58 57 58 58 58 58 58 58 58 57 57 57 56 56 55 54 54 53 52 49 45 46 52 56 56 55 55 57 60 58 56 57 58 62 65 65 63 61 60 59 58 59 60 60 62 66 70 71 69 71 74 77
57 57 57 59 61 62 64 65 64 63 62 60 60 60 60 61 61 61 61 61 60 60 59 58 58 56 54 52 47 43 45 47 50 54 57 58 58 58 60 61 58 56 58 60 61 61 60 60 60 60 60 62 63 63 62 64 68 72 72 72 75 78 80
59 59 60 61 63 64 66 68 67 66 65 63 62 62 62 63 63 64 64 63 63 62 61 60 59 56 54 51 43 40 44 49 53 55 56 59 61 60 60 59 57 58 59 57 55 57 59 61 61 59 60 63 64 63 63 65 70 73 74 76 79 81 81
60 61 62 64 65 67 69 69 69 68 67 67 66 65 64 65 65 66 66 66 65 64 62 60 58 55 55 52 47 42 41 47 53 55 56 59 59 57 57 56 56 56 55 53 54 57 60 62 63 62 62 62 61 61 64 68 72 75 77 79 81 82 82
62 64 65 66 68 69 71 71 71 70 70 69 69 68 67 68 68 68 68 67 66 64 61 59 57 55 55 53 49 43 39 42 47 49 52 53 52 54 57 58 56 55 53 52 53 56 59 64 66 65 64 63 63 64 68 72 75 77 79 81 82 82 82
65 66 68 69 70 71 72 73 72 72 72 72 71 69 69 69 69 68 67 66 64 62 61 59 56 55 54 52 48 43 40 43 49 51 52 52 53 57 60 59 58 56 53 53 55 59 65 68 70 69 67 67 67 69 72 75 77 79 80 81 82 82 83
68 69 70 70 71 73 74 74 74 74 74 73 71 70 69 68 68 67 65 64 63 62 61 60 58 56 55 53 49 43 41 46 52 55 58 59 61 62 61 61 63 60 56 56 59 64 68 70 71 70 70 69 70 73 77 79 79 79 80 81 83 84 85
70 70 71 71 72 73 73 72 73 73 73 73 71 70 68 66 65 65 64 63 63 62 62 61 60 59 58 56 52 47 44 47 52 55 58 62 65 66 67 67 66 63 60 60 62 64 66 68 69 71 71 72 74 77 79 80 79 80 81 84 85 86 86
70 71 71 72 72 71 70 69 69 71 72 72 72 70 69 67 65 64 63 64 63 63 63 63 62 62 61 59 56 52 47 49 54 56 57 61 66 68 67 63 61 62 62 62 63 65 67 69 72 74 75 76 78 79 79 80 81 82 84 85 86 86 87
69 70 71 70 69 68 67 66 67 69 71 72 72 71 70 67 66 65 65 65 65 65 65 65 64 63 63 62 60 56 51 50 54 57 58 59 59 60 60 59 59 60 61 63 66 69 72 73 76 77 79 80 80 80 80 81 83 84 84 85 87 88 90
69 69 69 67 66 66 66 67 67 69 70 71 71 71 69 68 68 67 67 67 67 67 67 67 66 64 64 63 62 60 56 53 55 59 60 61 62 61 61 62 62 63 66 69 72 74 75 77 79 82 84 84 83 82 82 82 83 84 85 87 90 93 93
67 67 66 65 65 66 67 67 68 69 70 70 70 70 70 70 69 68 69 69 69 69 69 69 67 66 64 64 62 61 61 61 61 61 62 66 68 63 55 56 62 68 72 73 74 76 79 81 83 85 85 84 82 81 81 82 83 86 89 92 94 93 92
66 66 65 65 65 67 68 69 70 70 70 70 71 71 71 71 71 71 71 71 71 71 70 69 68 67 65 64 63 63 63 63 64 64 63 64 67 65 61 64 70 74 75 74 75 77 80 81 81 81 80 79 79 80 82 84 86 90 92 93 92 90 89
66 66 66 66 67 68 69 70 72 72 72 72 73 73 73 73 73 72 72 72 72 71 70 69 68 67 66 65 64 63 63 62 64 65 62 59 62 66 69 71 73 73 72 73 74 75 76 76 77 77 77 79 81 83 85 87 89 90 91 90 89 89 89
68 68 68 69 70 70 71 72 74 74 75 75 75 75 74 74 73 73 73 73 72 70 70 69 68 66 65 64 63 63 63 64 64 64 61 59 61 65 67 68 70 70 70 72 73 75 76 77 78 80 81 82 83 84 85 86 87 87 87 87 89 90 92
70 70 70 71 71 72 73 74 75 75 77 77 77 77 76 75 75 74 74 73 72 71 71 68 66 64 63 63 64 63 63 62 61 61 61 62 64 65 66 68 70 71 72 75 77 79 82 83 84 83 82 81 82 83 84 85 85 85 86 88 91 93 96
73 72 72 72 73 74 75 75 76 77 78 78 78 78 78 77 76 75 74 74 73 72 70 67 65 64 64 64 63 62 61 60 61 62 64 65 66 67 68 70 72 74 77 79 82 85 88 88 84 79 78 80 82 83 84 84 85 86 89 91 94 96 99
74 74 74 74 74 75 76 77 77 78 79 79 79 80 79 78 77 78 77 75 73 70 68 67 66 66 66 65 63 62 62 63 64 65 66 67 68 69 71 73 74 77 80 83 85 87 86 81 76 76 81 84 84 85 86 87 88 90 92 94 96 99 103
76 75 75 75 76 76 77 78 79 79 79 79 80 80 79 79 79 79 78 76 74 71 70 69 69 69 68 66 64 64 64 65 66 68 69 70 71 73 75 76 78 80 83 84 84 84 81 78 79 84 88 88 87 87 89 90 92 93 94 96 100 103 105
77 76 76 76 76 77 77 77 77 77 77 78 78 79 79 79 79 78 77 76 75 74 72 71 70 69 67 66 66 66 67 69 70 70 71 73 75 77 77 79 80 82 84 85 84 83 82 83 86 91 91 90 89 90 91 93 94 95 98 101 104 103 98
76 75 75 75 75 76 76 76 76 77 77 78 78 78 78 78 77 75 75 74 74 73 72 72 71 70 68 68 67 68 69 71 72 74 76 78 78 78 79 81 85 88 90 91 90 87 87 89 92 93 93 91 91 91 92 95 97 100 103 103 100 95 90
75 75 75 76 76 77 77 78 77 77 77 77 76 76 76 75 75 75 74 73 72 71 71 72 72 72 71 69 68 70 73 75 75 76 76 75 75 77 81 86 90 93 94 93 92 91 91 93 94 94 93 92 92 93 95 99 102 103 101 96 91 88 88
76 75 75 76 77 76 76 76 76 74 74 73 72 73 74 75 75 75 74 74 74 75 75 75 74 73 72 72 73 74 73 71 69 68 68 71 74 79 84 88 93 96 95 93 92 93 93 94 94 93 93 93 94 96 99 100 99 96 92 89 88 89 90
75 74 74 75 75 75 74 74 73 73 72 71 71 73 75 75 76 76 75 76 77 78 79 78 77 76 73 71 71 71 69 67 67 70 74 79 83 86 89 93 97 99 98 96 94 93 92 92 92 92 93 94 96 98 97 94 91 89 89 89 90 90 91
Wind_Direction
269 269 271 275 280 285 288 290 291 292 292 293 294 296 297 298 299 301 301 302 302 303 304 306 308 309 310 311 311 311 312 313 313 313 314 314 315 315 316 317 317 317 317 317 317 317 318 318 319 319 320 322 322 322 323 322 323 326 326 325 327 328 327
273 274 275 276 278 282 285 287 290 292 292 293 294 294 295 296 297 298 299 300 301 302 303 306 307 309 310 310 310 310 311 312 313 313 313 314 314 313 314 316 316 315 316 315 316 317 316 316 317 318 320 321 320 320 322 321 321 325 326 325 326 326 325
275 276 277 278 279 280 282 284 287 289 291 292 292 293 294 294 295 297 298 299 300 302 303 305 307 309 309 309 309 310 311 312 313 313 314 315 315 311 312 315 315 314 315 316 316 315 315 315 317 318 320 320 319 319 321 320 319 323 326 326 326 325 323
280 281 281 282 282 282 283 284 285 287 288 288 289 291 292 294 295 296 297 298 299 301 303 305 307 309 309 309 310 311 312 313 313 314 315 315 314 311 311 314 313 313 316 316 315 315 315 316 317 319 320 320 319 319 320 319 318 321 325 326 326 324 323
282 283 283 283 284 284 285 285 286 286 286 286 287 289 291 293 295 295 296 297 299 301 304 306 308 308 309 309 311 312 313 313 314 314 315 315 313 312 314 315 312 312 315 315 315 316 316 316 317 319 320 319 319 319 319 318 317 318 322 325 326 325 324
279 280 282 283 284 284 284 285 286 285 285 285 286 288 290 292 293 295 296 298 300 302 304 306 307 308 308 310 312 313 313 314 315 315 316 314 313 314 315 314 311 311 313 314 315 316 316 316 318 319 319 319 319 319 318 318 315 315 319 324 326 325 325
275 277 278 280 281 282 283 284 284 283 283 284 286 288 290 291 293 294 296 298 301 303 304 305 306 306 308 310 312 312 313 314 315 316 315 314 313 313 314 313 311 310 311 312 314 316 316 316 319 320 320 319 318 318 317 316 314 314 318 323 324 324 324
273 274 276 278 279 281 282 283 282 283 284 285 287 289 290 292 293 294 296 298 300 302 303 304 305 306 308 310 311 312 313 314 314 315 314 313 312 312 312 311 309 309 310 311 313 315 316 318 321 322 321 319 318 317 316 315 314 315 318 321 322 322 323
272 274 276 277 279 280 281 281 282 283 285 286 288 289 290 291 292 293 295 297 299 300 302 303 305 307 308 309 310 312 312 313 313 313 312 312 311 311 311 310 309 308 309 310 313 315 317 321 324 323 320 318 316 314 314 315 314 315 317 318 319 320 322
272 274 276 278 279 280 281 281 282 284 285 286 287 288 288 289 291 293 294 295 297 299 301 303 305 306 307 308 310 311 312 312 312 312 312 311 310 310 309 308 308 307 308 311 314 315 318 323 326 324 320 317 314 312 312 313 314 314 315 316 317 318 319
271 273 275 276 278 279 281 282 283 284 284 285 286 287 287 289 290 291 293 295 297 299 301 302 302 304 306 308 309 311 313 313 313 313 312 310 309 309 309 310 310 309 310 314 316 316 318 322 324 323 320 315 312 309 310 312 312 312 313 314 315 316 317
270 272 274 275 277 278 279 280 281 282 283 284 285 286 287 288 289 291 292 294 296 298 299 300 301 303 305 307 310 313 315 315 315 313 312 310 308 310 314 314 311 310 310 312 313 313 316 320 321 320 318 313 309 308 309 311 312 312 312 312 313 314 316
270 272 273 274 276 277 277 278 279 280 282 283 285 286 287 289 290 291 293 294 295 297 298 299 301 302 305 308 312 314 317 318 315 309 306 307 306 306 309 308 306 308 308 309 309 309 313 318 320 319 317 312 309 308 307 309 312 313 312 312 312 313 315
268 270 271 273 274 275 275 276 277 279 280 282 284 285 287 289 290 291 292 293 294 296 297 299 300 302 305 309 312 316 318 319 313 301 296 299 300 299 301 303 304 307 308 307 306 306 312 317 318 317 315 313 310 308 304 305 309 312 312 310 310 312 315
267 268 270 272 273 274 275 276 277 278 279 281 283 285 286 288 289 290 291 292 293 294 296 298 299 301 305 309 315 317 314 308 301 294 291 293 296 296 298 302 305 306 306 304 304 307 313 316 314 311 311 311 310 307 303 302 305 309 309 309 310 313 315
267 268 270 271 272 274 275 276 276 278 279 280 282 284 286 287 288 289 290 291 292 293 295 297 298 301 304 308 312 308 299 293 290 288 287 290 295 297 299 301 302 302 303 302 303 307 310 311 310 307 306 306 306 305 302 302 304 307 308 309 311 313 316
267 268 270 271 271 272 273 275 276 277 279 280 281 283 284 285 286 287 288 289 290 292 294 295 297 299 301 303 302 296 291 288 285 285 286 289 295 298 299 299 298 300 303 302 301 302 303 305 306 304 302 302 303 303 302 302 304 307 309 310 312 314 315
267 268 269 270 270 271 272 273 275 277 278 280 281 282 283 283 284 285 286 287 288 290 292 293 295 297 296 297 297 295 294 290 288 289 289 291 295 296 295 295 296 300 303 300 297 299 300 302 303 301 300 300 300 300 300 302 305 307 309 310 312 313 313
267 267 268 269 270 271 272 273 275 276 278 279 280 282 282 283 283 284 285 286 287 289 290 291 293 293 293 293 293 294 292 286 283 285 286 287 287 287 289 292 293 297 299 295 295 299 300 300 299 298 297 296 296 297 298 301 304 306 308 310 311 311 311
265 266 267 268 269 270 272 273 275 276 277 278 280 281 281 282 283 284 285 286 288 289 290 291 292 291 291 291 291 290 287 278 271 272 276 280 281 284 289 290 288 291 294 293 295 298 297 296 296 295 294 294 294 296 298 301 304 305 307 308 309 310 310
264 265 266 267 268 269 271 273 274 276 277 278 279 279 280 281 282 284 285 287 288 289 290 291 292 291 291 291 290 289 285 278 272 270 272 277 283 288 290 289 287 287 288 289 292 293 292 291 291 292 292 292 293 295 297 301 303 304 305 306 308 309 309
264 265 266 266 267 268 270 272 274 276 277 277 278 279 280 281 282 284 286 287 288 289 290 291 292 292 292 291 290 288 282 275 273 272 272 275 281 286 287 287 286 284 283 284 287 287 286 287 288 291 292 291 292 294 297 299 300 301 303 305 307 308 308
263 264 265 265 266 267 269 271 273 274 276 277 279 280 281 282 283 285 286 287 289 290 291 291 292 291 291 291 289 287 283 277 274 273 273 275 279 282 282 282 284 284 284 284 284 285 285 286 288 291 292 293 293 294 295 297 298 300 302 304 305 307 307
261 262 263 264 266 268 269 271 272 273 275 277 278 280 281 283 285 286 287 288 290 290 290 290 290 290 291 290 289 287 285 281 278 275 274 273 273 273 274 276 280 284 285 284 284 285 286 286 288 291 292 293 294 294 295 297 298 300 302 304 305 305 304
260 261 263 264 266 268 268 269 271 272 273 275 277 279 281 283 285 286 287 288 288 288 288 289 289 290 289 289 288 286 284 280 277 275 274 272 269 269 272 273 275 280 284 284 284 286 287 288 289 291 292 294 295 296 298 299 300 301 302 302 303 303 303
260 261 263 265 266 267 268 269 270 272 273 275 277 279 281 282 283 284 285 286 286 286 287 287 288 288 288 287 285 284 283 281 278 276 274 272 272 272 270 270 273 280 284 285 285 287 288 289 290 292 293 295 296 298 299 300 301 301 301 301 302 303 303
260 261 263 264 266 267 269 271 272 273 274 276 277 278 280 281 282 283 283 284 284 285 285 286 287 287 286 285 284 283 283 282 280 278 276 274 273 272 269 271 276 281 283 284 286 287 287 288 291 293 295 297 298 300 301 301 301 300 300 301 301 302 303
260 262 264 265 266 268 270 272 273 274 275 276 277 278 278 280 281 282 283 283 283 283 284 285 286 286 285 284 284 283 282 281 280 280 278 276 276 276 275 277 280 282 284 286 288 290 291 293 296 298 299 300 300 300 300 300 300 300 300 301 301 302 304
261 263 264 266 268 269 271 273 274 275 276 277 278 278 279 281 282 282 283 283 282 283 285 286 286 285 285 285 284 283 283 282 281 281 279 278 279 280 280 281 283 286 289 292 294 296 299 301 302 302 301 300 299 299 300 300 300 301 301 302 303 305 306
263 264 266 268 270 272 273 274 275 277 278 279 280 281 281 282 283 283 283 284 284 286 287 287 286 285 286 285 284 284 283 282 281 282 283 283 285 286 287 289 291 294 297 298 300 301 302 302 302 301 300 299 299 300 300 301 301 302 303 304 306 306 307
266 267 269 271 273 274 275 276 277 278 279 280 281 282 282 283 283 283 284 285 287 287 287 286 286 286 286 285 284 283 282 283 285 288 290 292 294 295 295 297 298 299 300 300 300 301 301 301 301 300 300 300 299 300 301 303 304 305 306 306 306 306 307
268 270 272 273 274 275 276 277 278 278 279 280 281 281 282 283 284 285 286 287 287 287 286 286 287 288 288 288 288 288 289 291 293 295 296 298 298 298 298 298 298 298 297 297 298 299 300 300 299 299 301 302 302 303 305 306 306 306 306 306 305 306 306
269 271 272 273 273 274 275 276 278 279 280 280 281 282 283 285 286 287 287 288 288 288 288 290 291 294 295 296 296 296 296 296 296 297 297 297 297 296 297 296 296 295 295 296 298 299 298 297 298 301 304 306 306 306 306 306 306 305 305 305 305 305 306
269 270 271 272 273 274 275 276 278 279 279 280 280 282 283 284 285 286 287 288 290 291 293 294 296 298 299 299 298 298 297 297 296 296 295 294 294 294 294 295 295 296 298 300 301 301 299 298 301 304 306 306 305 305 305 305 305 304 304 304 304 305 305
268 269 270 271 272 273 275 275 276 277 278 279 280 282 283 284 285 287 288 289 291 293 295 297 298 298 297 297 296 295 295 294 294 294 293 292 292 294 296 298 301 303 304 304 303 301 300 301 302 303 304 304 304 304 304 304 303 303 303 304 304 304 304
268 269 270 271 272 273 274 275 276 277 278 280 281 282 283 284 285 287 287 288 290 291 292 294 294 294 294 294 293 292 292 292 292 292 292 291 294 297 300 302 304 305 304 302 301 299 299 299 300 301 303 303 303 303 303 303 302 302 302 302 303 303 304
269 270 271 272 272 273 274 276 277 277 278 279 279 280 281 283 284 285 286 287 288 289 290 290 291 291 292 293 294 293 292 291 290 290 290 291 294 297 297 299 301 302 301 300 298 298 297 298 300 301 302 302 301 301 302 302 302 301 301 302 303 304 304
271 271 272 272 272 273 274 275 276 276 277 277 277 277 279 281 282 283 284 285 287 288 289 290 291 292 293 295 295 293 291 289 288 288 289 290 292 293 294 296 299 300 300 298 298 298 298 299 301 301 300 300 300 300 301 301 301 301 301 303 303 304 304
Height
10961 10961 10961 10961 10960 10960 10960 10959 10959 10958 10958 10957 10956 10955 10954 10953 10953 10952 10951 10951 10950 10948 10947 10946 10946 10945 10944 10942 10941 10939 10937 10935 10934 10932 10930 10927 10925 10923 10921 10919 10916 10914 10911 10908 10905 10903 10901 10899 10897 10895 10892 10890 10887 10884 10881 10878 10875 10873 10871 10868 10864 10861 10858
10957 10957 10958 10958 10958 10958 10957 10956 10955 10955 10954 10953 10952 10952 10951 10951 10950 10949 10948 10947 10947 10945 10944 10943 10942 10941 10940 10938 10936 10935 10933 10931 10930 10928 10926 10924 10922 10919 10917 10916 10914 10911 10908 10905 10903 10900 10898 10896 10893 10891 10889 10886 10883 10880 10877 10874 10872 10869 10866 10863 10860 10857 10854
10952 10953 10953 10953 10954 10954 10954 10954 10953 10952 10951 10949 10948 10947 10947 10946 10946 10945 10944 10944 10943 10942 10940 10939 10937 10937 10936 10934 10932 10930 10928 10927 10925 10923 10921 10919 10917 10915 10913 10911 10909 10907 10905 10902 10899 10897 10894 10892 10889 10887 10884 10881 10878 10875 10872 10870 10868 10865 10862 10859 10856 10853 10850
10946 10947 10947 10948 10948 10949 10950 10950 10950 10950 10949 10947 10945 10943 10942 10942 10941 10941 10941 10940 10939 10938 10936 10934 10933 10932 10931 10929 10928 10926 10923 10921 10920 10918 10916 10914 10912 10910 10908 10906 10904 10902 10899 10897 10895 10892 10890 10887 10884 10882 10879 10876 10872 10870 10867 10865 10863 10861 10858 10855 10852 10849 10846
10941 10942 10942 10942 10943 10944 10944 10945 10946 10946 10945 10943 10942 10940 10939 10938 10937 10937 10937 10936 10935 10934 10932 10930 10928 10927 10925 10924 10923 10921 10918 10916 10914 10912 10910 10908 10906 10904 10902 10900 10898 10896 10894 10891 10888 10886 10884 10882 10879 10877 10874 10871 10867 10865 10862 10860 10858 10856 10854 10851 10848 10844 10841
10937 10937 10938 10937 10937 10938 10939 10940 10941 10940 10940 10939 10938 10937 10936 10935 10934 10932 10931 10931 10929 10928 10927 10926 10924 10922 10921 10919 10918 10916 10913 10910 10908 10906 10904 10902 10900 10898 10895 10893 10891 10889 10887 10884 10882 10880 10878 10875 10873 10871 10869 10866 10863 10860 10858 10856 10854 10851 10849 10846 10843 10840 10837
10933 10934 10934 10933 10933 10933 10934 10934 10934 10934 10934 10934 10933 10933 10932 10931 10930 10928 10927 10925 10924 10923 10922 10922 10920 10918 10917 10916 10914 10911 10908 10905 10902 10900 10898 10896 10894 10891 10889 10886 10884 10882 10879 10878 10877 10875 10872 10869 10867 10865 10863 10861 10859 10856 10853 10851 10849 10846 10843 10839 10836 10833 10831
10929 10929 10929 10929 10928 10928 10928 10928 10927 10927 10927 10928 10928 10928 10927 10926 10925 10924 10922 10921 10920 10918 10917 10917 10916 10914 10913 10912 10910 10907 10904 10900 10897 10895 10892 10889 10887 10885 10882 10880 10877 10874 10872 10871 10870 10869 10866 10863 10861 10859 10857 10856 10854 10851 10849 10847 10844 10841 10838 10834 10831 10828 10825
10925 10925 10924 10924 10922 10922 10922 10921 10921 10921 10921 10921 10922 10921 10921 10920 10919 10919 10918 10917 10916 10914 10913 10912 10911 10910 10909 10907 10905 10903 10900 10897 10893 10890 10887 10884 10881 10878 10876 10873 10871 10867 10865 10864 10864 10863 10860 10858 10855 10854 10852 10850 10848 10846 10844 10842 10839 10837 10833 10830 10827 10824 10821
10921 10920 10920 10918 10916 10916 10916 10914 10914 10915 10915 10915 10915 10915 10915 10914 10914 10914 10913 10913 10912 10912 10910 10908 10907 10905 10904 10902 10900 10899 10896 10893 10889 10886 10882 10879 10876 10872 10870 10867 10864 10861 10859 10859 10858 10857 10855 10852 10850 10848 10846 10845 10842 10840 10838 10835 10833 10829 10826 10824 10821 10819 10816
10916 10916 10915 10912 10911 10911 10910 10908 10908 10908 10908 10908 10908 10909 10909 10909 10909 10909 10909 10909 10909 10908 10907 10905 10904 10901 10899 10897 10895 10894 10891 10887 10883 10879 10876 10873 10870 10868 10865 10862 10859 10856 10854 10853 10853 10851 10849 10847 10845 10843 10841 10839 10836 10834 10831 10828 10825 10822 10819 10816 10813 10811 10808
10912 10911 10910 10907 10906 10906 10905 10903 10902 10901 10901 10901 10902 10903 10903 10903 10903 10903 10904 10904 10904 10904 10903 10901 10900 10898 10895 10892 10891 10889 10885 10880 10875 10870 10868 10867 10865 10863 10860 10858 10855 10852 10850 10849 10847 10845 10843 10840 10838 10837 10835 10832 10829 10827 10825 10822 10818 10815 10812 10809 10806 10803 10800
10907 10906 10904 10902 10901 10901 10899 10898 10897 10896 10894 10895 10896 10897 10897 10897 10897 10897 10898 10898 10898 10898 10897 10896 10895 10893 10891 10889 10887 10885 10881 10876 10870 10864 10862 10862 10861 10859 10856 10854 10852 10848 10846 10844 10841 10839 10836 10833 10830 10829 10827 10825 10823 10820 10818 10815 10812 10809 10806 10803 10800 10796 10792
10902 10900 10899 10897 10895 10894 10893 10892 10891 10891 10889 10890 10891 10891 10891 10891 10891 10891 10892 10892 10892 10892 10891 10891 10889 10887 10887 10886 10884 10881 10877 10874 10868 10860 10856 10856 10856 10855 10852 10849 10848 10845 10841 10838 10835 10833 10830 10827 10823 10821 10819 10817 10816 10814 10811 10808 10806 10803 10800 10796 10793 10789 10785
10896 10895 10894 10892 10889 10888 10886 10885 10885 10885 10885 10886 10887 10886 10886 10886 10885 10885 10885 10885 10886 10886 10886 10885 10884 10883 10883 10882 10882 10880 10876 10873 10866 10855 10850 10850 10850 10850 10847 10844 10842 10840 10837 10833 10829 10826 10824 10822 10818 10815 10812 10810 10809 10807 10805 10802 10799 10797 10794 10790 10786 10782 10778
10891 10890 10889 10886 10884 10882 10879 10878 10879 10879 10880 10882 10882 10882 10881 10880 10880 10879 10879 10879 10880 10879 10879 10878 10878 10878 10879 10879 10880 10878 10874 10870 10862 10852 10846 10845 10845 10844 10842 10839 10837 10835 10832 10828 10824 10822 10819 10816 10814 10810 10807 10805 10802 10800 10798 10795 10792 10789 10785 10783 10779 10775 10771
10885 10885 10883 10881 10879 10877 10873 10871 10872 10873 10874 10875 10876 10877 10877 10876 10874 10873 10873 10873 10873 10873 10873 10873 10873 10874 10874 10873 10874 10873 10870 10863 10856 10850 10845 10842 10840 10839 10836 10833 10831 10828 10826 10822 10818 10816 10813 10810 10808 10805 10802 10800 10797 10794 10792 10789 10785 10781 10777 10774 10772 10768 10765
10880 10879 10877 10874 10872 10870 10867 10865 10866 10867 10868 10869 10870 10871 10872 10871 10870 10868 10868 10867 10866 10867 10867 10868 10869 10870 10868 10866 10866 10867 10866 10859 10851 10848 10842 10836 10835 10833 10829 10826 10824 10821 10819 10815 10811 10809 10806 10804 10801 10798 10796 10793 10791 10788 10785 10781 10778 10774 10770 10767 10764 10762 10758
10874 10872 10870 10868 10865 10862 10860 10860 10860 10861 10861 10862 10863 10865 10865 10864 10863 10862 10862 10860 10860 10860 10861 10862 10864 10863 10862 10861 10861 10862 10862 10857 10850 10844 10835 10828 10827 10824 10820 10817 10815 10814 10812 10808 10804 10802 10799 10797 10794 10792 10790 10787 10784 10781 10777 10773 10770 10767 10763 10760 10757 10755 10752
10866 10865 10862 10861 10858 10856 10854 10853 10854 10855 10855 10855 10857 10858 10858 10857 10856 10855 10854 10854 10853 10853 10853 10854 10856 10855 10854 10854 10855 10856 10856 10851 10843 10835 10826 10821 10820 10817 10814 10810 10807 10807 10804 10800 10797 10796 10792 10790 10789 10786 10784 10781 10777 10774 10769 10766 10763 10759 10756 10753 10750 10747 10744
10858 10856 10855 10854 10852 10849 10848 10848 10848 10848 10848 10848 10849 10850 10850 10850 10849 10848 10847 10846 10846 10845 10845 10845 10846 10847 10846 10847 10848 10850 10850 10844 10835 10828 10822 10817 10814 10810 10807 10803 10800 10799 10796 10792 10791 10789 10786 10785 10783 10780 10777 10774 10771 10767 10762 10758 10755 10752 10749 10746 10742 10739 10735
10848 10848 10847 10847 10845 10843 10844 10844 10843 10842 10840 10840 10840 10841 10842 10842 10842 10841 10840 10839 10838 10837 10837 10837 10837 10837 10837 10838 10840 10841 10841 10835 10827 10823 10819 10813 10808 10803 10799 10796 10793 10790 10787 10786 10785 10782 10780 10778 10775 10772 10769 10767 10764 10761 10756 10751 10748 10745 10742 10739 10735 10732 10728
10840 10839 10838 10838 10837 10837 10839 10839 10838 10836 10834 10832 10832 10832 10833 10833 10834 10834 10833 10832 10831 10830 10830 10829 10829 10829 10828 10829 10830 10831 10832 10828 10820 10816 10814 10807 10800 10795 10791 10789 10787 10783 10780 10779 10777 10775 10772 10769 10767 10764 10761 10758 10756 10753 10749 10744 10740 10738 10735 10731 10728 10725 10722
10832 10830 10829 10830 10831 10832 10833 10833 10831 10829 10827 10825 10824 10824 10825 10826 10826 10826 10826 10825 10824 10823 10822 10821 10822 10821 10820 10819 10819 10820 10823 10821 10813 10807 10805 10800 10792 10788 10786 10784 10781 10777 10775 10772 10769 10766 10763 10760 10758 10755 10752 10750 10747 10743 10740 10737 10733 10730 10727 10723 10720 10718 10715
10823 10822 10822 10824 10826 10826 10825 10824 10822 10821 10819 10818 10818 10818 10818 10819 10819 10819 10818 10817 10816 10815 10814 10813 10814 10814 10812 10810 10808 10808 10809 10809 10804 10799 10796 10791 10786 10783 10781 10777 10774 10771 10768 10764 10760 10757 10754 10751 10749 10747 10745 10743 10740 10736 10733 10729 10725 10721 10718 10715 10712 10709 10706
10815 10815 10816 10819 10819 10817 10816 10815 10814 10813 10812 10812 10812 10812 10812 10812 10812 10812 10811 10810 10809 10807 10806 10805 10805 10805 10804 10801 10799 10797 10797 10796 10794 10791 10788 10784 10781 10780 10776 10770 10767 10764 10760 10755 10752 10748 10745 10743 10742 10739 10736 10734 10732 10729 10725 10722 10717 10713 10709 10706 10703 10700 10697
10809 10810 10811 10812 10811 10809 10809 10808 10807 10806 10806 10806 10806 10806 10806 10805 10805 10805 10804 10803 10801 10800 10798 10797 10797 10796 10794 10792 10790 10788 10787 10785 10782 10780 10779 10776 10774 10774 10770 10764 10760 10757 10752 10748 10745 10741 10738 10737 10735 10732 10728 10725 10723 10720 10716 10712 10709 10704 10699 10696 10693 10690 10687
10803 10804 10804 10804 10804 10803 10802 10801 10800 10799 10798 10798 10799 10799 10799 10799 10798 10798 10797 10795 10794 10792 10790 10789 10787 10786 10784 10783 10781 10779 10778 10775 10772 10769 10769 10767 10764 10763 10760 10756 10752 10749 10745 10742 10738 10734 10731 10729 10727 10724 10720 10716 10713 10710 10707 10703 10700 10695 10690 10685 10682 10680 10676
10796 10796 10796 10796 10796 10795 10795 10793 10792 10791 10790 10789 10790 10790 10791 10791 10791 10790 10788 10786 10785 10784 10782 10780 10778 10776 10775 10774 10772 10770 10769 10766 10763 10760 10760 10758 10755 10753 10750 10747 10743 10740 10737 10733 10728 10724 10721 10720 10718 10715 10711 10708 10704 10701 10698 10695 10690 10685 10681 10675 10671 10667 10663
10787 10788 10788 10788 10787 10786 10786 10785 10784 10782 10781 10780 10781 10781 10781 10781 10781 10780 10778 10776 10775 10774 10772 10771 10769 10768 10767 10766 10763 10761 10759 10757 10754 10752 10750 10747 10745 10743 10740 10736 10733 10729 10726 10722 10718 10715 10713 10711 10709 10707 10703 10699 10696 10692 10689 10686 10680 10675 10670 10665 10660 10655 10650
10777 10778 10779 10779 10778 10777 10775 10774 10773 10772 10771 10771 10771 10770 10771 10771 10770 10769 10768 10767 10765 10764 10762 10761 10761 10759 10758 10757 10755 10752 10749 10747 10745 10742 10738 10736 10733 10731 10728 10725 10722 10719 10716 10713 10710 10707 10705 10702 10700 10697 10694 10691 10688 10683 10679 10674 10669 10664 10659 10655 10650 10645 10639
10768 10769 10770 10769 10768 10767 10766 10765 10763 10763 10762 10761 10761 10760 10760 10760 10759 10758 10757 10757 10756 10755 10754 10753 10752 10750 10748 10746 10744 10741 10739 10736 10734 10730 10727 10726 10724 10721 10719 10717 10714 10711 10708 10705 10702 10699 10696 10693 10690 10688 10685 10681 10677 10672 10667 10662 10658 10654 10649 10644 10640 10634 10629
10760 10761 10761 10760 10759 10758 10757 10755 10754 10753 10752 10751 10750 10750 10750 10749 10749 10747 10746 10745 10745 10744 10743 10742 10740 10738 10736 10734 10732 10730 10728 10726 10723 10721 10719 10717 10715 10713 10711 10709 10706 10703 10700 10697 10694 10691 10688 10685 10681 10677 10674 10669 10665 10660 10655 10650 10647 10643 10638 10633 10629 10624 10618
10751 10752 10751 10750 10749 10748 10747 10746 10745 10744 10743 10741 10741 10741 10740 10739 10739 10738 10736 10734 10733 10732 10731 10729 10729 10727 10726 10724 10722 10720 10718 10715 10714 10712 10710 10708 10706 10704 10702 10699 10696 10693 10690 10687 10684 10681 10677 10674 10670 10666 10662 10658 10654 10650 10645 10640 10636 10632 10627 10622 10617 10613 10608
10741 10742 10741 10741 10740 10739 10738 10737 10736 10735 10734 10732 10732 10732 10730 10729 10728 10727 10726 10724 10722 10721 10720 10719 10719 10718 10718 10716 10714 10712 10709 10706 10704 10703 10700 10697 10695 10693 10691 10687 10683 10680 10678 10674 10671 10669 10665 10662 10659 10655 10651 10647 10644 10640 10635 10630 10625 10620 10615 10610 10606 10602 10598
10732 10733 10732 10731 10731 10730 10729 10728 10727 10726 10724 10723 10722 10721 10720 10719 10718 10717 10716 10715 10714 10713 10712 10712 10711 10710 10710 10709 10707 10704 10701 10698 10696 10693 10689 10686 10684 10682 10678 10675 10672 10669 10666 10663 10660 10658 10655 10652 10648 10645 10641 10637 10633 10630 10625 10619 10614 10608 10603 10600 10596 10593 10588
10723 10724 10723 10722 10721 10721 10720 10718 10717 10716 10715 10714 10713 10712 10711 10710 10709 10709 10708 10707 10706 10705 10705 10704 10704 10703 10702 10700 10697 10694 10691 10689 10687 10685 10680 10677 10675 10673 10670 10667 10664 10661 10658 10655 10652 10649 10646 10642 10639 10635 10630 10627 10623 10619 10614 10609 10603 10597 10593 10590 10587 10583 10578
10714 10714 10714 10712 10711 10711 10711 10709 10708 10707 10706 10705 10705 10703 10703 10702 10701 10701 10700 10699 10698 10696 10695 10695 10694 10693 10693 10692 10686 10681 10679 10678 10678 10676 10673 10669 10668 10666 10663 10659 10656 10652 10649 10646 10643 10640 10637 10633 10629 10625 10621 10617 10613 10608 10603 10598 10592 10587 10583 10580 10577 10573 10568